Weather History for Kansas City International, MO

Change the Weather History Date:

Tuesday, April 23, 2013

  Actual Average Record
Temperature  
Mean Temperature 37 °F 57 °F  
Max Temperature 41 °F 68 °F 90 °F (1965)
Min Temperature 33 °F 47 °F 32 °F (1893)
Degree Days  
Heating Degree Days 28 9  
Month to date heating degree days 388 277  
Since 1 July heating degree days 4956 4968  
Cooling Degree Days 0 1  
Month to date cooling degree days 0 17  
Year to date cooling degree days 0 20  
Growing Degree Days 0 (Base 50)    
Moisture  
Dew Point 32 °F    
Average Humidity 88    
Maximum Humidity 100    
Minimum Humidity 76    
Precipitation  
Precipitation 0.60 in 0.15 in 4.49 in (1975)
Month to date precipitation 3.42 2.65  
Year to date precipitation 8.26 7.55  
Snow  
Snow T in 0.00 in 0.00 in ()
Month to date snowfall T 0.6  
Since 1 July snowfall 31.3 18.8  
Snow Depth 0.00 in    
Sea Level Pressure  
Sea Level Pressure 30.10 in    
Wind  
Wind Speed 14 mph (NNW)    
Max Wind Speed 25 mph    
Max Gust Speed 35 mph    
Visibility 7 miles    
Events Rain , Snow    
T = Trace of Precipitation, MM = Missing Value Source: NWS Daily Summary

Daily Weather History Graph

Daily Weather History Graph

Search for Another Location

Airport:

Trip Planner

Search our weather history database for the weather conditions in past years. The results will help you decide how hot, cold, wet, or windy it might be!

Date:

Astronomy

Apr. 23, 2013 Rise Set
Actual Time 6:30 AM CDT 8:04 PM CDT
Civil Twilight 6:01 AM CDT 8:33 PM CDT
Nautical Twilight 5:27 AM CDT 9:07 PM CDT
Astronomical Twilight 4:51 AM CDT 9:43 PM CDT
Moon 6:01 PM CDT (4/23) 4:58 AM CDT (4/23)
Length of Visible Light 14h 31m
Length of Day
13h 34m
Waxing Gibbous, 94% of the Moon is Illuminated
Apr 23
Waxing Gibbous
Apr 25
Full
May 2
Last Quarter
May 9
New
May 17
First Quarter

Hourly Weather History & Observations

Time (CDT) Temp. Windchill Dew Point Humidity Pressure Visibility Wind Dir Wind Speed Gust Speed Precip Events Conditions
12:53 AM 42.1 °F 33.1 °F 37.9 °F 85% 30.07 in 10.0 mi NNW 20.7 mph 31.1 mph 0.00 in   Light Drizzle
1:53 AM 39.0 °F 29.6 °F 36.0 °F 89% 30.02 in 10.0 mi North 18.4 mph - 0.18 in Rain Light Rain
2:53 AM 37.9 °F 27.9 °F 34.0 °F 86% 30.07 in 10.0 mi North 19.6 mph 29.9 mph 0.00 in Rain Light Rain
3:22 AM 37.4 °F 27.8 °F 33.8 °F 87% 30.07 in 6.0 mi North 17.3 mph 23.0 mph 0.03 in Rain Rain
3:53 AM 36.0 °F 26.7 °F 33.1 °F 89% 30.04 in 7.0 mi North 15.0 mph 24.2 mph 0.07 in Rain Light Rain
4:53 AM 35.6 °F 24.5 °F 32.0 °F 87% 30.07 in 10.0 mi North 20.7 mph 28.8 mph N/A Rain Light Rain
4:58 AM 35.6 °F 24.8 °F 32.0 °F 87% 30.07 in 10.0 mi North 19.6 mph 28.8 mph 0.00 in Rain Light Rain
5:17 AM 35.6 °F 24.5 °F 32.0 °F 87% 30.05 in 9.0 mi North 20.7 mph 28.8 mph 0.03 in Rain Light Rain
5:53 AM 35.1 °F 24.1 °F 32.0 °F 89% 30.04 in 10.0 mi North 19.6 mph 25.3 mph 0.08 in Rain Light Rain
6:53 AM 35.1 °F 24.1 °F 30.9 °F 85% 30.04 in 10.0 mi North 19.6 mph 27.6 mph 0.04 in Rain Light Rain
7:53 AM 34.0 °F 24.2 °F 30.9 °F 89% 30.08 in 4.0 mi North 15.0 mph 24.2 mph 0.01 in Rain Light Rain
8:10 AM 33.8 °F 22.2 °F 30.2 °F 87% 30.08 in 7.0 mi North 20.7 mph 28.8 mph 0.03 in Rain Light Ice Pellets
8:23 AM 33.8 °F 23.5 °F 30.2 °F 87% 30.09 in 8.0 mi North 16.1 mph 24.2 mph 0.04 in Rain Light Rain
8:48 AM 33.8 °F 22.5 °F 30.2 °F 87% 30.11 in 5.0 mi NNW 19.6 mph 26.5 mph 0.06 in Rain Light Ice Pellets
8:53 AM 34.0 °F 24.2 °F 30.0 °F 85% 30.13 in 5.0 mi North 15.0 mph 24.2 mph 0.06 in Rain Light Ice Pellets
9:06 AM 33.8 °F 22.8 °F 30.2 °F 87% 30.09 in 3.0 mi North 18.4 mph 27.6 mph 0.02 in Snow Light Snow
9:11 AM 33.8 °F 23.2 °F 30.2 °F 87% 30.08 in 2.0 mi North 17.3 mph - 0.03 in Snow Light Snow
9:18 AM 33.8 °F 24.3 °F 30.2 °F 87% 30.09 in 3.0 mi North 13.8 mph 21.9 mph 0.05 in Snow Light Snow
9:53 AM 33.1 °F 21.5 °F 30.9 °F 92% 30.09 in 10.0 mi North 19.6 mph 24.2 mph 0.09 in   Light Ice Pellets
10:14 AM 33.8 °F 23.5 °F 30.2 °F 87% 30.10 in 9.0 mi North 16.1 mph - 0.00 in Rain Light Rain
10:48 AM 33.8 °F 23.2 °F 32.0 °F 93% 30.10 in 9.0 mi North 17.3 mph 24.2 mph 0.00 in   Light Ice Pellets
10:53 AM 33.1 °F 22.6 °F 32.0 °F 96% 30.11 in 9.0 mi North 16.1 mph 21.9 mph 0.00 in   Light Ice Pellets
11:09 AM 33.8 °F 23.2 °F 32.0 °F 93% 30.10 in 6.0 mi North 17.3 mph 23.0 mph 0.00 in   Light Drizzle
11:53 AM 33.1 °F 22.6 °F 32.0 °F 96% 30.12 in 3.0 mi North 16.1 mph 24.2 mph 0.00 in   Light Drizzle
12:10 PM 33.8 °F 23.2 °F 32.0 °F 93% 30.10 in 4.0 mi North 17.3 mph 26.5 mph 0.00 in   Light Drizzle
12:38 PM 33.8 °F 23.9 °F 32.0 °F 93% 30.10 in 3.0 mi North 15.0 mph - 0.01 in   Light Ice Pellets
12:53 PM 34.0 °F 23.4 °F 32.0 °F 92% 30.12 in 2.0 mi North 17.3 mph 23.0 mph 0.01 in   Light Ice Pellets
1:00 PM 33.8 °F 23.9 °F 32.0 °F 93% 30.10 in 3.0 mi North 15.0 mph 23.0 mph 0.00 in   Light Ice Pellets
1:53 PM 33.8 °F 23.5 °F 33.8 °F 100% 30.09 in 3.0 mi North 16.1 mph - N/A   Light Ice Pellets
2:53 PM 35.1 °F 25.9 °F 33.1 °F 92% 30.12 in 3.0 mi NNW 13.8 mph 20.7 mph 0.00 in   Light Drizzle
3:53 PM 36.0 °F 27.1 °F 34.0 °F 93% 30.11 in 3.0 mi North 13.8 mph 21.9 mph 0.00 in   Overcast
4:17 PM 37.4 °F 28.9 °F 35.6 °F 93% 30.09 in 10.0 mi North 13.8 mph 21.9 mph N/A   Overcast
4:53 PM 37.0 °F 28.5 °F 35.1 °F 93% 30.11 in 10.0 mi North 13.8 mph - N/A   Overcast
5:53 PM 37.0 °F 29.8 °F 36.0 °F 96% 30.11 in 10.0 mi NNW 10.4 mph - N/A   Overcast
6:36 PM 37.4 °F 32.1 °F 32.0 °F 81% 30.09 in 10.0 mi NNW 6.9 mph - N/A   Overcast
6:53 PM 37.9 °F 33.5 °F 30.9 °F 76% 30.11 in 10.0 mi NW 5.8 mph - N/A   Overcast
7:53 PM 37.9 °F 33.5 °F 32.0 °F 79% 30.12 in 10.0 mi NW 5.8 mph - N/A   Overcast
8:53 PM 37.9 °F 31.5 °F 30.9 °F 76% 30.14 in 10.0 mi NW 9.2 mph - N/A   Overcast
9:53 PM 37.0 °F 26.7 °F 28.9 °F 73% 30.17 in 10.0 mi North 19.6 mph 26.5 mph 0.00 in Snow Light Snow
10:08 PM 35.6 °F 26.6 °F 30.2 °F 81% 30.16 in 6.0 mi NNW 13.8 mph - 0.00 in Rain Light Rain
10:29 PM 35.6 °F 28.0 °F 28.4 °F 75% 30.17 in 10.0 mi NNW 10.4 mph - 0.01 in Rain Light Rain
10:53 PM 36.0 °F 30.3 °F 30.0 °F 79% 30.19 in 10.0 mi NNW 6.9 mph - 0.01 in Rain Light Rain
11:20 PM 35.6 °F 31.7 °F 30.2 °F 81% 30.17 in 10.0 mi NW 4.6 mph - 0.00 in Snow Light Snow
11:53 PM 36.0 °F 30.3 °F 30.0 °F 79% 30.19 in 9.0 mi West 6.9 mph - 0.00 in   Overcast